This is the latest recevied weather packets stored in our database for station/object ac2ev. If no packets are shown the sender has not sent any weather packets the latest 10 day(s).
| Time | Temp. | Humidity | Pressure | Rain* | Wind** | Luminosity | Snow |
|---|---|---|---|---|---|---|---|
| 1788401132 | 20.56° C | 89% | 1013.1 hPa | 2.03 mm | - | - | - |
| 1788400832 | 20.56° C | 89% | 1012.5 hPa | 1.27 mm | - | - | - |
| 1788400532 | 20.56° C | 89% | 1011.7 hPa | 1.27 mm | - | - | - |
| 1788400229 | 20.56° C | 89% | 1011.1 hPa | 1.27 mm | - | - | - |
| 1788399924 | 20.56° C | 89% | 1011 hPa | 1.52 mm | - | - | - |
| 1788399618 | 20.56° C | 89% | 1010.9 hPa | 1.52 mm | - | - | - |
| 1788399311 | 20.56° C | 89% | 1011.1 hPa | 1.52 mm | - | - | - |
| 1788399008 | 20.56° C | 89% | 1011.6 hPa | 1.27 mm | - | - | - |
| 1788398754 | 20.56° C | 89% | 1012.3 hPa | 1.78 mm | - | - | - |
| 1788398479 | 20.56° C | 89% | 1012.5 hPa | 2.03 mm | - | - | - |
| 1788398108 | 20.56° C | 89% | 1012 hPa | 2.03 mm | - | - | - |
| 1788397807 | 20.56° C | 89% | 1012 hPa | 2.29 mm | - | - | - |
| 1788397561 | 20.56° C | 89% | 1012 hPa | 2.03 mm | - | - | - |
| 1788397276 | 20.56° C | 89% | 1012 hPa | 2.29 mm | - | - | - |
| 1788396907 | 20.56° C | 89% | 1011.9 hPa | 5.59 mm | - | - | - |
| 1788396605 | 20.56° C | 89% | 1012 hPa | 6.1 mm | - | - | - |
| 1788396306 | 20.56° C | 89% | 1012.3 hPa | 6.1 mm | - | - | - |
| 1788396005 | 21.11° C | 89% | 1012.5 hPa | 6.6 mm | - | - | - |
| 1788395705 | 21.11° C | 89% | 1012.5 hPa | 9.4 mm | - | - | - |
| 1788395407 | 20.56° C | 89% | 1012.9 hPa | 12.7 mm | - | - | - |
| 1788395180 | 20.56° C | 89% | 1012.6 hPa | 16 mm | - | - | - |
| 1788390302 | 27.22° C | 81% | 1011.3 hPa | 0 mm | - | - | - |
| 1788390005 | 27.78° C | 81% | 1010.2 hPa | 0 mm | - | - | - |
| 1788389704 | 27.78° C | 80% | 1010 hPa | 0 mm | - | - | - |
| 1788389402 | 27.78° C | 80% | 1010.3 hPa | 0 mm | - | - | - |
* Rain latest hour (hover to see other rain measurements)
** Current wind speed in m/s (hover to see current wind gust speed)